Regional Weather Roundup
Issued by NWS Portland, ME

Current Version | Previous Version | Graphics & Text | Print | Product List | Glossary On
Versions: 1 2 3 4 5 6 7 8 9 10 11 12 13 14 15 16 17 18 19 20 21 22 23 24 25 26 27 28 29 30 31 32 33 34 35 36 37 38 39 40 41 42 43 44 45 46 47 48 49 50
000
ASUS41 KGYX 260610
RWRGYX
WEATHER ROUNDUP FOR MAINE AND NEW HAMPSHIRE
NATIONAL WEATHER SERVICE GRAY ME
200 AM EDT SUN APR 26 2015

MEZ002-005-006-010-012-015-018-020-021-024-026-027-029-260700-
MAINE

CITY           SKY/WX    TMP DP  RH WIND       PRES   REMARKS
PORTLAND       CLOUDY    42  32  67 W7        29.68F
6HR MIN TEMP:  42; 6HR MAX TEMP:  48;

SANFORD        CLOUDY    41  27  56 CALM      29.69F
BAR HARBOR     CLOUDY    39  36  87 CALM      29.64F
WISCASSET      CLOUDY    39  32  76 CALM      29.68F
6HR MIN TEMP:  39; 6HR MAX TEMP:  46;

ROCKLAND       CLOUDY    41  32  70 CALM      29.65S
FRYEBURG       CLOUDY    40  31  70 W3        29.67F
6HR MIN TEMP:  36; 6HR MAX TEMP:  41;

LEWISTONAUBURN CLOUDY    39  30  70 W3        29.66F
AUGUSTA        MOCLDY    39  31  72 NW6       29.66F
6HR MIN TEMP:  38; 6HR MAX TEMP:  43; 6HR PCP: TRACE;

WATERVILLE     CLOUDY    39  30  70 CALM      29.64S
BANGOR         CLOUDY    39  33  79 W5        29.64F
6HR MIN TEMP:  39; 6HR MAX TEMP:  43;

GREENVILLE       N/A     34  33  96 NW6       29.60F
6HR MIN TEMP:  33; 6HR MAX TEMP:  35; 6HR PCP:  0.01;

MILLINOCKET    CLOUDY    38  33  82 NW3       29.63F
6HR MIN TEMP:  38; 6HR MAX TEMP:  44;

HOULTON        CLOUDY    32  30  92 CALM      29.60S
6HR MIN TEMP:  32; 6HR MAX TEMP:  41;

PRESQUE ISLE   CLOUDY    37  30  75 NW3       29.60F
6HR MIN TEMP:  36; 6HR MAX TEMP:  41;

FRENCHVILLE    CLOUDY    35  33  92 NW8       29.58F
6HR MIN TEMP:  35; 6HR MAX TEMP:  37; 6HR PCP: TRACE;

CARIBOU        CLOUDY    36  33  89 W5        29.58F
6HR MIN TEMP:  34; 6HR MAX TEMP:  37;

$$

NHZ002-005-008-009-011-012-014-260700-
NEW HAMPSHIRE

CITY           SKY/WX    TMP DP  RH WIND       PRES   REMARKS
PORTSMOUTH     MOCLDY    41  31  67 W3        29.68F
ROCHESTER      CLOUDY    41  30  65 NW7       29.68F
6HR MIN TEMP:  40; 6HR MAX TEMP:  44;

NASHUA         MOCLDY    42  34  73 CALM      29.70F
MANCHESTER     CLOUDY    43  29  57 N3        29.69F
6HR MIN TEMP:  43; 6HR MAX TEMP:  49;

CONCORD        CLOUDY    40  31  70 W5        29.70F
6HR MIN TEMP:  39; 6HR MAX TEMP:  45;

LACONIA        CLOUDY    41  30  65 SW5       29.68F
PLYMOUTH       CLOUDY    39  36  88 CALM      29.70F
BERLIN         CLOUDY    34  29  82 CALM      29.66F
6HR MIN TEMP:  34; 6HR MAX TEMP:  39;

WHITEFIELD     CLOUDY    35  33  92 CALM      29.69F
6HR MIN TEMP:  35; 6HR MAX TEMP:  39; 6HR PCP: TRACE;

JAFFREY        CLOUDY    37  32  82 CALM      29.69F
6HR MIN TEMP:  36; 6HR MAX TEMP:  46;

KEENE          CLOUDY    37  32  81 CALM      29.71F
LEBANON        CLOUDY    38  31  76 CALM      29.70F
6HR MIN TEMP:  37; 6HR MAX TEMP:  44;

MT WASHINGTON  FOG       19  19 100 N31         N/A  VSB 0   WCI   0
6HR MIN TEMP:  18; 6HR MAX TEMP:  20;

$$

VTZ005-007-008-260700-
VERMONT

CITY           SKY/WX    TMP DP  RH WIND       PRES   REMARKS
ST JOHNSBURY     N/A     38  33  82 MISG      29.69F
MONTPELIER     CLOUDY    36  31  82 CALM      29.73F
BURLINGTON     CLOUDY    43  31  62 SW3       29.72S
$$

MAZ007-012-024-CTZ003-RIZ002-NYZ038-NYZ072-260700-
SOUTHERN NEW ENGLAND AND NY

CITY           SKY/WX    TMP DP  RH WIND       PRES   REMARKS
BOSTON         CLOUDY    44  30  57 N8        29.70F
WORCESTER      CLOUDY    42  27  55 N8        29.68F
NANTUCKET      CLOUDY    43  37  79 N7        29.68F
PROVIDENCE     CLEAR     45  29  53 N10       29.71S
HARTFORD       PTCLDY    43  28  55 N5        29.69F
ALBANY         CLOUDY    43  28  55 CALM      29.73F
NEW YORK CITY  MOCLDY    49  30  48 NE8       29.68F
$$

ANZ081-ANZ082-ANZ150-NHZ014-MEZ023>029-260700-
COASTAL MARINE OBSERVATIONS

STATION/POSITION TIME  TEMP    WIND        PRES    WAVE
                       AIR SEA DIR/SP/G            HT/PER
                 (UTC) (F)     (DEG/KT/KT) (MB)    (FT/S)
$$

.............KEY..............
   WCI - WIND CHILL
   TC  - TEMPERATURE IN CELSIUS
   VSB - VISIBILITY IN MILES
   HX  - HEAT INDEX
   FAIR- INDICATES FEW OR NO CLOUDS BELOW 12,000 FT, WITH NO
         SIGNIFICANT WEATHER AND/OR OBSTRUCTIONS TO VISIBILITY.




USA.gov is the U.S. government's official web portal to all federal, state and local government web resources and services.